owner,sensor,date,latitude,longitude,vertical_datum,sea_water_temperature,qcFlag 
SCCF RECON,ioos:station:SCCF:53:1,2008-10-01T00:00:00Z,26.6493,-81.8810,2.11,27.1,2 
SCCF RECON,ioos:station:SCCF:53:1,2008-10-01T01:00:00Z,26.6493,-81.8810,2.11,27.05,2 
SCCF RECON,ioos:station:SCCF:53:1,2008-10-01T02:00:00Z,26.6493,-81.8810,2.11,27.13,2 
SCCF RECON,ioos:station:SCCF:53:1,2008-10-01T03:00:00Z,26.6493,-81.8810,2.11,27.02,2 
SCCF RECON,ioos:station:SCCF:53:1,2008-10-01T04:00:00Z,26.6493,-81.8810,2.11,26.98,2 
SCCF RECON,ioos:station:SCCF:53:1,2008-10-01T05:00:00Z,26.6493,-81.8810,2.11,26.79,2 
SCCF RECON,ioos:station:SCCF:53:1,2008-10-01T06:00:00Z,26.6493,-81.8810,2.11,27.01,2 
SCCF RECON,ioos:station:SCCF:53:1,2008-10-01T07:00:00Z,26.6493,-81.8810,2.11,26.82,2 
SCCF RECON,ioos:station:SCCF:53:1,2008-10-01T08:00:00Z,26.6493,-81.8810,2.11,26.76,2 
SCCF RECON,ioos:station:SCCF:53:1,2008-10-01T09:00:00Z,26.6493,-81.8810,2.11,26.75,2 
SCCF RECON,ioos:station:SCCF:53:1,2008-10-01T10:00:00Z,26.6493,-81.8810,2.11,26.78,2 
SCCF RECON,ioos:station:SCCF:53:1,2008-10-01T11:00:00Z,26.6493,-81.8810,2.11,26.61,2 
SCCF RECON,ioos:station:SCCF:53:1,2008-10-01T12:00:00Z,26.6493,-81.8810,2.11,26.64,2 
SCCF RECON,ioos:station:SCCF:53:1,2008-10-01T13:00:00Z,26.6493,-81.8810,2.11,26.73,2 
SCCF RECON,ioos:station:SCCF:53:1,2008-10-01T14:00:00Z,26.6493,-81.8810,2.11,26.91,2 
SCCF RECON,ioos:station:SCCF:53:1,2008-10-01T15:00:00Z,26.6493,-81.8810,2.11,26.88,2 
SCCF RECON,ioos:station:SCCF:53:1,2008-10-01T16:00:00Z,26.6493,-81.8810,2.11,27.2,2 
SCCF RECON,ioos:station:SCCF:53:1,2008-10-01T17:00:00Z,26.6493,-81.8810,2.11,27.13,2 
SCCF RECON,ioos:station:SCCF:53:1,2008-10-01T18:00:00Z,26.6493,-81.8810,2.11,27.17,2 
SCCF RECON,ioos:station:SCCF:53:1,2008-10-01T19:00:00Z,26.6493,-81.8810,2.11,26.95,2 
SCCF RECON,ioos:station:SCCF:53:1,2008-10-01T20:00:00Z,26.6493,-81.8810,2.11,27.98,2 
SCCF RECON,ioos:station:SCCF:53:1,2008-10-01T21:00:00Z,26.6493,-81.8810,2.11,28.14,2 
SCCF RECON,ioos:station:SCCF:53:1,2008-10-01T22:00:00Z,26.6493,-81.8810,2.11,28.17,2 
SCCF RECON,ioos:station:SCCF:53:1,2008-10-01T23:00:00Z,26.6493,-81.8810,2.11,28.03,2 
SCCF RECON,ioos:station:SCCF:53:1,2008-10-02T00:00:00Z,26.6493,-81.8810,2.11,28.02,2 
SCCF RECON,ioos:station:SCCF:53:1,2008-10-02T01:00:00Z,26.6493,-81.8810,2.11,27.94,2 
SCCF RECON,ioos:station:SCCF:53:1,2008-10-02T02:00:00Z,26.6493,-81.8810,2.11,27.69,2 
SCCF RECON,ioos:station:SCCF:53:1,2008-10-02T03:00:00Z,26.6493,-81.8810,2.11,27.69,2 
SCCF RECON,ioos:station:SCCF:53:1,2008-10-02T04:00:00Z,26.6493,-81.8810,2.11,27.68,2 
SCCF RECON,ioos:station:SCCF:53:1,2008-10-02T05:00:00Z,26.6493,-81.8810,2.11,27.64,2 
SCCF RECON,ioos:station:SCCF:53:1,2008-10-02T06:00:00Z,26.6493,-81.8810,2.11,27.58,2 
SCCF RECON,ioos:station:SCCF:53:1,2008-10-02T07:00:00Z,26.6493,-81.8810,2.11,27.55,2 
SCCF RECON,ioos:station:SCCF:53:1,2008-10-02T08:00:00Z,26.6493,-81.8810,2.11,27.48,2 
SCCF RECON,ioos:station:SCCF:53:1,2008-10-02T09:00:00Z,26.6493,-81.8810,2.11,27.41,2 
SCCF RECON,ioos:station:SCCF:53:1,2008-10-02T10:00:00Z,26.6493,-81.8810,2.11,27.38,2 
SCCF RECON,ioos:station:SCCF:53:1,2008-10-02T11:00:00Z,26.6493,-81.8810,2.11,27.36,2 
SCCF RECON,ioos:station:SCCF:53:1,2008-10-02T12:00:00Z,26.6493,-81.8810,2.11,27.34,2 
SCCF RECON,ioos:station:SCCF:53:1,2008-10-02T13:00:00Z,26.6493,-81.8810,2.11,27.3,2 
SCCF RECON,ioos:station:SCCF:53:1,2008-10-02T14:00:00Z,26.6493,-81.8810,2.11,27.05,2 
SCCF RECON,ioos:station:SCCF:53:1,2008-10-02T15:00:00Z,26.6493,-81.8810,2.11,27.22,2 
SCCF RECON,ioos:station:SCCF:53:1,2008-10-02T16:00:00Z,26.6493,-81.8810,2.11,27.28,2 
SCCF RECON,ioos:station:SCCF:53:1,2008-10-02T17:00:00Z,26.6493,-81.8810,2.11,27.49,2 
SCCF RECON,ioos:station:SCCF:53:1,2008-10-02T18:00:00Z,26.6493,-81.8810,2.11,27.71,2 
SCCF RECON,ioos:station:SCCF:53:1,2008-10-02T19:00:00Z,26.6493,-81.8810,2.11,27.59,2 
SCCF RECON,ioos:station:SCCF:53:1,2008-10-02T20:00:00Z,26.6493,-81.8810,2.11,27.58,2 
SCCF RECON,ioos:station:SCCF:53:1,2008-10-02T21:00:00Z,26.6493,-81.8810,2.11,27.88,2 
SCCF RECON,ioos:station:SCCF:53:1,2008-10-02T22:00:00Z,26.6493,-81.8810,2.11,28.01,2 
SCCF RECON,ioos:station:SCCF:53:1,2008-10-02T23:00:00Z,26.6493,-81.8810,2.11,27.96,2 
SCCF RECON,ioos:station:SCCF:53:1,2008-10-03T00:00:00Z,26.6493,-81.8810,2.11,27.83,2 
SCCF RECON,ioos:station:SCCF:53:1,2008-10-03T01:00:00Z,26.6493,-81.8810,2.11,27.77,2 
SCCF RECON,ioos:station:SCCF:53:1,2008-10-03T02:00:00Z,26.6493,-81.8810,2.11,27.69,2 
SCCF RECON,ioos:station:SCCF:53:1,2008-10-03T03:00:00Z,26.6493,-81.8810,2.11,27.82,2 
SCCF RECON,ioos:station:SCCF:53:1,2008-10-03T04:00:00Z,26.6493,-81.8810,2.11,27.89,2 
SCCF RECON,ioos:station:SCCF:53:1,2008-10-03T05:00:00Z,26.6493,-81.8810,2.11,27.8,2 
SCCF RECON,ioos:station:SCCF:53:1,2008-10-03T06:00:00Z,26.6493,-81.8810,2.11,27.46,2 
SCCF RECON,ioos:station:SCCF:53:1,2008-10-03T07:00:00Z,26.6493,-81.8810,2.11,27.33,2 
SCCF RECON,ioos:station:SCCF:53:1,2008-10-03T08:00:00Z,26.6493,-81.8810,2.11,27.17,2 
SCCF RECON,ioos:station:SCCF:53:1,2008-10-03T09:00:00Z,26.6493,-81.8810,2.11,27.17,2 
SCCF RECON,ioos:station:SCCF:53:1,2008-10-03T10:00:00Z,26.6493,-81.8810,2.11,26.97,2 
SCCF RECON,ioos:station:SCCF:53:1,2008-10-03T11:00:00Z,26.6493,-81.8810,2.11,26.86,2 
SCCF RECON,ioos:station:SCCF:53:1,2008-10-03T12:00:00Z,26.6493,-81.8810,2.11,26.87,2 
SCCF RECON,ioos:station:SCCF:53:1,2008-10-03T13:00:00Z,26.6493,-81.8810,2.11,26.9,2 
SCCF RECON,ioos:station:SCCF:53:1,2008-10-03T14:00:00Z,26.6493,-81.8810,2.11,27.02,2 
SCCF RECON,ioos:station:SCCF:53:1,2008-10-03T15:00:00Z,26.6493,-81.8810,2.11,27.03,2 
SCCF RECON,ioos:station:SCCF:53:1,2008-10-03T16:00:00Z,26.6493,-81.8810,2.11,27.04,2 
SCCF RECON,ioos:station:SCCF:53:1,2008-10-03T17:00:00Z,26.6493,-81.8810,2.11,26.9,2 
SCCF RECON,ioos:station:SCCF:53:1,2008-10-03T18:00:00Z,26.6493,-81.8810,2.11,27.06,2 
SCCF RECON,ioos:station:SCCF:53:1,2008-10-03T19:00:00Z,26.6493,-81.8810,2.11,27.19,2 
SCCF RECON,ioos:station:SCCF:53:1,2008-10-03T20:00:00Z,26.6493,-81.8810,2.11,27.16,2 
SCCF RECON,ioos:station:SCCF:53:1,2008-10-03T21:00:00Z,26.6493,-81.8810,2.11,27.16,2 
SCCF RECON,ioos:station:SCCF:53:1,2008-10-03T22:00:00Z,26.6493,-81.8810,2.11,27.31,2 
SCCF RECON,ioos:station:SCCF:53:1,2008-10-03T23:00:00Z,26.6493,-81.8810,2.11,27.4,2 
SCCF RECON,ioos:station:SCCF:53:1,2008-10-04T00:00:00Z,26.6493,-81.8810,2.11,27.24,2 
SCCF RECON,ioos:station:SCCF:53:1,2008-10-04T01:00:00Z,26.6493,-81.8810,2.11,27.28,2 
SCCF RECON,ioos:station:SCCF:53:1,2008-10-04T02:00:00Z,26.6493,-81.8810,2.11,27.38,2 
SCCF RECON,ioos:station:SCCF:53:1,2008-10-04T03:00:00Z,26.6493,-81.8810,2.11,27.5,2 
SCCF RECON,ioos:station:SCCF:53:1,2008-10-04T04:00:00Z,26.6493,-81.8810,2.11,27.87,2 
SCCF RECON,ioos:station:SCCF:53:1,2008-10-04T05:00:00Z,26.6493,-81.8810,2.11,27.74,2 
SCCF RECON,ioos:station:SCCF:53:1,2008-10-04T06:00:00Z,26.6493,-81.8810,2.11,27.69,2 
SCCF RECON,ioos:station:SCCF:53:1,2008-10-04T07:00:00Z,26.6493,-81.8810,2.11,27.59,2 
SCCF RECON,ioos:station:SCCF:53:1,2008-10-04T08:00:00Z,26.6493,-81.8810,2.11,27.41,2 
SCCF RECON,ioos:station:SCCF:53:1,2008-10-04T09:00:00Z,26.6493,-81.8810,2.11,27.4,2 
SCCF RECON,ioos:station:SCCF:53:1,2008-10-04T10:00:00Z,26.6493,-81.8810,2.11,27.31,2 
SCCF RECON,ioos:station:SCCF:53:1,2008-10-04T11:00:00Z,26.6493,-81.8810,2.11,27.22,2 
SCCF RECON,ioos:station:SCCF:53:1,2008-10-04T12:00:00Z,26.6493,-81.8810,2.11,27.25,2 
SCCF RECON,ioos:station:SCCF:53:1,2008-10-04T13:00:00Z,26.6493,-81.8810,2.11,27.32,2 
SCCF RECON,ioos:station:SCCF:53:1,2008-10-04T14:00:00Z,26.6493,-81.8810,2.11,27.49,2 
SCCF RECON,ioos:station:SCCF:53:1,2008-10-04T15:00:00Z,26.6493,-81.8810,2.11,27.59,2 
SCCF RECON,ioos:station:SCCF:53:1,2008-10-04T16:00:00Z,26.6493,-81.8810,2.11,27.35,2 
SCCF RECON,ioos:station:SCCF:53:1,2008-10-04T17:00:00Z,26.6493,-81.8810,2.11,27.25,2 
SCCF RECON,ioos:station:SCCF:53:1,2008-10-04T18:00:00Z,26.6493,-81.8810,2.11,27.36,2 
SCCF RECON,ioos:station:SCCF:53:1,2008-10-04T19:00:00Z,26.6493,-81.8810,2.11,27.32,2 
SCCF RECON,ioos:station:SCCF:53:1,2008-10-04T20:00:00Z,26.6493,-81.8810,2.11,27.31,2 
SCCF RECON,ioos:station:SCCF:53:1,2008-10-04T21:00:00Z,26.6493,-81.8810,2.11,27.29,2 
SCCF RECON,ioos:station:SCCF:53:1,2008-10-04T22:00:00Z,26.6493,-81.8810,2.11,27.29,2 
SCCF RECON,ioos:station:SCCF:53:1,2008-10-04T23:00:00Z,26.6493,-81.8810,2.11,27.39,2 
SCCF RECON,ioos:station:SCCF:53:1,2008-10-05T00:00:00Z,26.6493,-81.8810,2.11,27.34,2 
SCCF RECON,ioos:station:SCCF:53:1,2008-10-05T01:00:00Z,26.6493,-81.8810,2.11,27.3,2 
SCCF RECON,ioos:station:SCCF:53:1,2008-10-05T02:00:00Z,26.6493,-81.8810,2.11,27.26,2 
SCCF RECON,ioos:station:SCCF:53:1,2008-10-05T03:00:00Z,26.6493,-81.8810,2.11,27.17,2 
SCCF RECON,ioos:station:SCCF:53:1,2008-10-05T04:00:00Z,26.6493,-81.8810,2.11,27.03,2 
SCCF RECON,ioos:station:SCCF:53:1,2008-10-05T05:00:00Z,26.6493,-81.8810,2.11,26.89,2 
SCCF RECON,ioos:station:SCCF:53:1,2008-10-05T06:00:00Z,26.6493,-81.8810,2.11,26.87,2 
SCCF RECON,ioos:station:SCCF:53:1,2008-10-05T07:00:00Z,26.6493,-81.8810,2.11,26.7,2 
SCCF RECON,ioos:station:SCCF:53:1,2008-10-05T08:00:00Z,26.6493,-81.8810,2.11,26.58,2 
SCCF RECON,ioos:station:SCCF:53:1,2008-10-05T09:00:00Z,26.6493,-81.8810,2.11,26.45,2 
SCCF RECON,ioos:station:SCCF:53:1,2008-10-05T10:00:00Z,26.6493,-81.8810,2.11,26.42,2 
SCCF RECON,ioos:station:SCCF:53:1,2008-10-05T11:00:00Z,26.6493,-81.8810,2.11,26.4,2 
SCCF RECON,ioos:station:SCCF:53:1,2008-10-05T12:00:00Z,26.6493,-81.8810,2.11,26.35,2 
SCCF RECON,ioos:station:SCCF:53:1,2008-10-05T13:00:00Z,26.6493,-81.8810,2.11,26.3,2 
SCCF RECON,ioos:station:SCCF:53:1,2008-10-05T14:00:00Z,26.6493,-81.8810,2.11,26.36,2 
SCCF RECON,ioos:station:SCCF:53:1,2008-10-05T15:00:00Z,26.6493,-81.8810,2.11,26.63,2 
SCCF RECON,ioos:station:SCCF:53:1,2008-10-05T16:00:00Z,26.6493,-81.8810,2.11,26.71,2 
SCCF RECON,ioos:station:SCCF:53:1,2008-10-05T17:00:00Z,26.6493,-81.8810,2.11,26.81,2 
SCCF RECON,ioos:station:SCCF:53:1,2008-10-05T18:00:00Z,26.6493,-81.8810,2.11,26.91,2 
SCCF RECON,ioos:station:SCCF:53:1,2008-10-05T19:00:00Z,26.6493,-81.8810,2.11,27.06,2 
SCCF RECON,ioos:station:SCCF:53:1,2008-10-05T20:00:00Z,26.6493,-81.8810,2.11,27.13,2 
SCCF RECON,ioos:station:SCCF:53:1,2008-10-05T21:00:00Z,26.6493,-81.8810,2.11,27.15,2 
SCCF RECON,ioos:station:SCCF:53:1,2008-10-05T22:00:00Z,26.6493,-81.8810,2.11,27.05,2 
SCCF RECON,ioos:station:SCCF:53:1,2008-10-05T23:00:00Z,26.6493,-81.8810,2.11,27.04,2 
SCCF RECON,ioos:station:SCCF:53:1,2008-10-06T00:00:00Z,26.6493,-81.8810,2.11,27.04,2 
SCCF RECON,ioos:station:SCCF:53:1,2008-10-06T01:00:00Z,26.6493,-81.8810,2.11,27.07,2 
SCCF RECON,ioos:station:SCCF:53:1,2008-10-06T02:00:00Z,26.6493,-81.8810,2.11,27.05,2 
SCCF RECON,ioos:station:SCCF:53:1,2008-10-06T03:00:00Z,26.6493,-81.8810,2.11,26.96,2 
SCCF RECON,ioos:station:SCCF:53:1,2008-10-06T04:00:00Z,26.6493,-81.8810,2.11,26.88,2 
SCCF RECON,ioos:station:SCCF:53:1,2008-10-06T05:00:00Z,26.6493,-81.8810,2.11,26.8,2 
SCCF RECON,ioos:station:SCCF:53:1,2008-10-06T06:00:00Z,26.6493,-81.8810,2.11,26.75,2 
SCCF RECON,ioos:station:SCCF:53:1,2008-10-06T07:00:00Z,26.6493,-81.8810,2.11,26.71,2 
SCCF RECON,ioos:station:SCCF:53:1,2008-10-06T08:00:00Z,26.6493,-81.8810,2.11,26.65,2 
SCCF RECON,ioos:station:SCCF:53:1,2008-10-06T09:00:00Z,26.6493,-81.8810,2.11,26.74,2 
SCCF RECON,ioos:station:SCCF:53:1,2008-10-06T10:00:00Z,26.6493,-81.8810,2.11,26.77,2 
SCCF RECON,ioos:station:SCCF:53:1,2008-10-06T11:00:00Z,26.6493,-81.8810,2.11,26.75,2 
SCCF RECON,ioos:station:SCCF:53:1,2008-10-06T12:00:00Z,26.6493,-81.8810,2.11,26.73,2 
SCCF RECON,ioos:station:SCCF:53:1,2008-10-06T13:00:00Z,26.6493,-81.8810,2.11,26.67,2 
SCCF RECON,ioos:station:SCCF:53:1,2008-10-06T14:00:00Z,26.6493,-81.8810,2.11,26.63,2 
SCCF RECON,ioos:station:SCCF:53:1,2008-10-06T15:00:00Z,26.6493,-81.8810,2.11,26.72,2 
SCCF RECON,ioos:station:SCCF:53:1,2008-10-06T16:00:00Z,26.6493,-81.8810,2.11,26.76,2 
SCCF RECON,ioos:station:SCCF:53:1,2008-10-06T17:00:00Z,26.6493,-81.8810,2.11,26.84,2 
SCCF RECON,ioos:station:SCCF:53:1,2008-10-06T18:00:00Z,26.6493,-81.8810,2.11,27.04,2 
SCCF RECON,ioos:station:SCCF:53:1,2008-10-06T19:00:00Z,26.6493,-81.8810,2.11,27.12,2 
SCCF RECON,ioos:station:SCCF:53:1,2008-10-06T20:00:00Z,26.6493,-81.8810,2.11,27.32,2 
SCCF RECON,ioos:station:SCCF:53:1,2008-10-06T21:00:00Z,26.6493,-81.8810,2.11,27.58,2 
SCCF RECON,ioos:station:SCCF:53:1,2008-10-06T22:00:00Z,26.6493,-81.8810,2.11,27.4,2 
SCCF RECON,ioos:station:SCCF:53:1,2008-10-06T23:00:00Z,26.6493,-81.8810,2.11,27.34,2 
SCCF RECON,ioos:station:SCCF:53:1,2008-10-07T00:00:00Z,26.6493,-81.8810,2.11,27.21,2 
SCCF RECON,ioos:station:SCCF:53:1,2008-10-07T01:00:00Z,26.6493,-81.8810,2.11,27.1,2 
SCCF RECON,ioos:station:SCCF:53:1,2008-10-07T02:00:00Z,26.6493,-81.8810,2.11,27.06,2 
SCCF RECON,ioos:station:SCCF:53:1,2008-10-07T03:00:00Z,26.6493,-81.8810,2.11,26.98,2 
SCCF RECON,ioos:station:SCCF:53:1,2008-10-07T04:00:00Z,26.6493,-81.8810,2.11,26.9,2 
SCCF RECON,ioos:station:SCCF:53:1,2008-10-07T05:00:00Z,26.6493,-81.8810,2.11,26.9,2 
SCCF RECON,ioos:station:SCCF:53:1,2008-10-07T06:00:00Z,26.6493,-81.8810,2.11,26.91,2 
SCCF RECON,ioos:station:SCCF:53:1,2008-10-07T07:00:00Z,26.6493,-81.8810,2.11,26.86,2 
SCCF RECON,ioos:station:SCCF:53:1,2008-10-07T08:00:00Z,26.6493,-81.8810,2.11,26.86,2 
SCCF RECON,ioos:station:SCCF:53:1,2008-10-07T09:00:00Z,26.6493,-81.8810,2.11,26.85,2 
SCCF RECON,ioos:station:SCCF:53:1,2008-10-07T10:00:00Z,26.6493,-81.8810,2.11,26.8,2 
SCCF RECON,ioos:station:SCCF:53:1,2008-10-07T11:00:00Z,26.6493,-81.8810,2.11,26.66,2 
SCCF RECON,ioos:station:SCCF:53:1,2008-10-07T12:00:00Z,26.6493,-81.8810,2.11,26.93,2 
SCCF RECON,ioos:station:SCCF:53:1,2008-10-07T13:00:00Z,26.6493,-81.8810,2.11,26.85,2 
SCCF RECON,ioos:station:SCCF:53:1,2008-10-07T14:00:00Z,26.6493,-81.8810,2.11,26.7,2 
SCCF RECON,ioos:station:SCCF:53:1,2008-10-07T15:00:00Z,26.6493,-81.8810,2.11,26.76,2 
SCCF RECON,ioos:station:SCCF:53:1,2008-10-07T16:00:00Z,26.6493,-81.8810,2.11,26.98,2 
SCCF RECON,ioos:station:SCCF:53:1,2008-10-07T17:00:00Z,26.6493,-81.8810,2.11,27.05,2 
SCCF RECON,ioos:station:SCCF:53:1,2008-10-07T18:00:00Z,26.6493,-81.8810,2.11,27.19,2 
SCCF RECON,ioos:station:SCCF:53:1,2008-10-07T19:00:00Z,26.6493,-81.8810,2.11,27.48,2 
SCCF RECON,ioos:station:SCCF:53:1,2008-10-07T20:00:00Z,26.6493,-81.8810,2.11,27.72,2 
SCCF RECON,ioos:station:SCCF:53:1,2008-10-07T21:00:00Z,26.6493,-81.8810,2.11,28.0,2 
SCCF RECON,ioos:station:SCCF:53:1,2008-10-07T22:00:00Z,26.6493,-81.8810,2.11,28.05,2 
SCCF RECON,ioos:station:SCCF:53:1,2008-10-07T23:00:00Z,26.6493,-81.8810,2.11,28.04,2 
SCCF RECON,ioos:station:SCCF:53:1,2008-10-08T00:00:00Z,26.6493,-81.8810,2.11,27.97,2 
SCCF RECON,ioos:station:SCCF:53:1,2008-10-08T01:00:00Z,26.6493,-81.8810,2.11,27.69,2 
SCCF RECON,ioos:station:SCCF:53:1,2008-10-08T02:00:00Z,26.6493,-81.8810,2.11,27.52,2 
SCCF RECON,ioos:station:SCCF:53:1,2008-10-08T03:00:00Z,26.6493,-81.8810,2.11,27.48,2 
SCCF RECON,ioos:station:SCCF:53:1,2008-10-08T04:00:00Z,26.6493,-81.8810,2.11,27.36,2 
SCCF RECON,ioos:station:SCCF:53:1,2008-10-08T05:00:00Z,26.6493,-81.8810,2.11,27.32,2 
SCCF RECON,ioos:station:SCCF:53:1,2008-10-08T06:00:00Z,26.6493,-81.8810,2.11,27.28,2 
SCCF RECON,ioos:station:SCCF:53:1,2008-10-08T07:00:00Z,26.6493,-81.8810,2.11,27.13,2 
SCCF RECON,ioos:station:SCCF:53:1,2008-10-08T08:00:00Z,26.6493,-81.8810,2.11,27.19,2 
SCCF RECON,ioos:station:SCCF:53:1,2008-10-08T09:00:00Z,26.6493,-81.8810,2.11,27.18,2 
SCCF RECON,ioos:station:SCCF:53:1,2008-10-08T10:00:00Z,26.6493,-81.8810,2.11,27.21,2 
SCCF RECON,ioos:station:SCCF:53:1,2008-10-08T11:00:00Z,26.6493,-81.8810,2.11,27.21,2 
SCCF RECON,ioos:station:SCCF:53:1,2008-10-08T12:00:00Z,26.6493,-81.8810,2.11,27.13,2 
SCCF RECON,ioos:station:SCCF:53:1,2008-10-08T13:00:00Z,26.6493,-81.8810,2.11,27.15,2 
SCCF RECON,ioos:station:SCCF:53:1,2008-10-08T14:00:00Z,26.6493,-81.8810,2.11,27.15,2 
SCCF RECON,ioos:station:SCCF:53:1,2008-10-08T15:00:00Z,26.6493,-81.8810,2.11,27.13,2 
SCCF RECON,ioos:station:SCCF:53:1,2008-10-08T16:00:00Z,26.6493,-81.8810,2.11,27.06,2 
SCCF RECON,ioos:station:SCCF:53:1,2008-10-08T17:00:00Z,26.6493,-81.8810,2.11,27.03,2 
SCCF RECON,ioos:station:SCCF:53:1,2008-10-08T18:00:00Z,26.6493,-81.8810,2.11,27.08,2 
SCCF RECON,ioos:station:SCCF:53:1,2008-10-08T19:00:00Z,26.6493,-81.8810,2.11,27.35,2 
SCCF RECON,ioos:station:SCCF:53:1,2008-10-08T20:00:00Z,26.6493,-81.8810,2.11,27.61,2 
SCCF RECON,ioos:station:SCCF:53:1,2008-10-08T21:00:00Z,26.6493,-81.8810,2.11,27.77,2 
SCCF RECON,ioos:station:SCCF:53:1,2008-10-08T22:00:00Z,26.6493,-81.8810,2.11,27.79,2 
SCCF RECON,ioos:station:SCCF:53:1,2008-10-08T23:00:00Z,26.6493,-81.8810,2.11,27.92,2 
SCCF RECON,ioos:station:SCCF:53:1,2008-10-09T00:00:00Z,26.6493,-81.8810,2.11,28.07,2 
SCCF RECON,ioos:station:SCCF:53:1,2008-10-09T01:00:00Z,26.6493,-81.8810,2.11,27.47,2 
SCCF RECON,ioos:station:SCCF:53:1,2008-10-09T02:00:00Z,26.6493,-81.8810,2.11,27.24,2 
SCCF RECON,ioos:station:SCCF:53:1,2008-10-09T03:00:00Z,26.6493,-81.8810,2.11,27.23,2 
SCCF RECON,ioos:station:SCCF:53:1,2008-10-09T04:00:00Z,26.6493,-81.8810,2.11,27.23,2 
SCCF RECON,ioos:station:SCCF:53:1,2008-10-09T05:00:00Z,26.6493,-81.8810,2.11,27.25,2 
SCCF RECON,ioos:station:SCCF:53:1,2008-10-09T06:00:00Z,26.6493,-81.8810,2.11,27.29,2 
SCCF RECON,ioos:station:SCCF:53:1,2008-10-09T07:00:00Z,26.6493,-81.8810,2.11,27.22,2 
SCCF RECON,ioos:station:SCCF:53:1,2008-10-09T08:00:00Z,26.6493,-81.8810,2.11,27.51,2 
SCCF RECON,ioos:station:SCCF:53:1,2008-10-09T09:00:00Z,26.6493,-81.8810,2.11,27.78,2 
SCCF RECON,ioos:station:SCCF:53:1,2008-10-09T10:00:00Z,26.6493,-81.8810,2.11,27.54,2 
SCCF RECON,ioos:station:SCCF:53:1,2008-10-09T11:00:00Z,26.6493,-81.8810,2.11,27.55,2 
SCCF RECON,ioos:station:SCCF:53:1,2008-10-09T12:00:00Z,26.6493,-81.8810,2.11,27.41,2 
SCCF RECON,ioos:station:SCCF:53:1,2008-10-09T13:00:00Z,26.6493,-81.8810,2.11,27.34,2 
SCCF RECON,ioos:station:SCCF:53:1,2008-10-09T14:00:00Z,26.6493,-81.8810,2.11,27.3,2 
SCCF RECON,ioos:station:SCCF:53:1,2008-10-09T15:00:00Z,26.6493,-81.8810,2.11,27.33,2 
SCCF RECON,ioos:station:SCCF:53:1,2008-10-09T16:00:00Z,26.6493,-81.8810,2.11,27.4,2 
SCCF RECON,ioos:station:SCCF:53:1,2008-10-09T17:00:00Z,26.6493,-81.8810,2.11,27.41,2 
SCCF RECON,ioos:station:SCCF:53:1,2008-10-09T18:00:00Z,26.6493,-81.8810,2.11,27.49,2 
SCCF RECON,ioos:station:SCCF:53:1,2008-10-09T19:00:00Z,26.6493,-81.8810,2.11,27.6,2 
SCCF RECON,ioos:station:SCCF:53:1,2008-10-09T20:00:00Z,26.6493,-81.8810,2.11,27.98,2 
SCCF RECON,ioos:station:SCCF:53:1,2008-10-09T21:00:00Z,26.6493,-81.8810,2.11,28.32,2 
SCCF RECON,ioos:station:SCCF:53:1,2008-10-09T22:00:00Z,26.6493,-81.8810,2.11,28.6,2 
SCCF RECON,ioos:station:SCCF:53:1,2008-10-09T23:00:00Z,26.6493,-81.8810,2.11,28.75,2 
SCCF RECON,ioos:station:SCCF:53:1,2008-10-10T00:00:00Z,26.6493,-81.8810,2.11,28.57,2 
SCCF RECON,ioos:station:SCCF:53:1,2008-10-10T01:00:00Z,26.6493,-81.8810,2.11,28.57,2 
SCCF RECON,ioos:station:SCCF:53:1,2008-10-10T02:00:00Z,26.6493,-81.8810,2.11,28.5,2 
SCCF RECON,ioos:station:SCCF:53:1,2008-10-10T03:00:00Z,26.6493,-81.8810,2.11,28.29,2 
SCCF RECON,ioos:station:SCCF:53:1,2008-10-10T04:00:00Z,26.6493,-81.8810,2.11,28.2,2 
SCCF RECON,ioos:station:SCCF:53:1,2008-10-10T05:00:00Z,26.6493,-81.8810,2.11,28.21,2 
SCCF RECON,ioos:station:SCCF:53:1,2008-10-10T06:00:00Z,26.6493,-81.8810,2.11,28.2,2 
SCCF RECON,ioos:station:SCCF:53:1,2008-10-10T07:00:00Z,26.6493,-81.8810,2.11,28.07,2 
SCCF RECON,ioos:station:SCCF:53:1,2008-10-10T08:00:00Z,26.6493,-81.8810,2.11,28.05,2 
SCCF RECON,ioos:station:SCCF:53:1,2008-10-10T09:00:00Z,26.6493,-81.8810,2.11,28.11,2 
SCCF RECON,ioos:station:SCCF:53:1,2008-10-10T10:00:00Z,26.6493,-81.8810,2.11,28.13,2 
SCCF RECON,ioos:station:SCCF:53:1,2008-10-10T11:00:00Z,26.6493,-81.8810,2.11,28.13,2 
SCCF RECON,ioos:station:SCCF:53:1,2008-10-10T12:00:00Z,26.6493,-81.8810,2.11,28.17,2 
SCCF RECON,ioos:station:SCCF:53:1,2008-10-10T13:00:00Z,26.6493,-81.8810,2.11,28.15,2 
SCCF RECON,ioos:station:SCCF:53:1,2008-10-10T14:00:00Z,26.6493,-81.8810,2.11,28.08,2 
SCCF RECON,ioos:station:SCCF:53:1,2008-10-10T15:00:00Z,26.6493,-81.8810,2.11,27.93,2 
SCCF RECON,ioos:station:SCCF:53:1,2008-10-10T16:00:00Z,26.6493,-81.8810,2.11,27.97,2 
SCCF RECON,ioos:station:SCCF:53:1,2008-10-10T17:00:00Z,26.6493,-81.8810,2.11,28.16,2 
SCCF RECON,ioos:station:SCCF:53:1,2008-10-10T18:00:00Z,26.6493,-81.8810,2.11,28.15,2 
SCCF RECON,ioos:station:SCCF:53:1,2008-10-10T19:00:00Z,26.6493,-81.8810,2.11,28.36,2 
SCCF RECON,ioos:station:SCCF:53:1,2008-10-10T20:00:00Z,26.6493,-81.8810,2.11,28.64,2 
SCCF RECON,ioos:station:SCCF:53:1,2008-10-10T21:00:00Z,26.6493,-81.8810,2.11,28.82,2 
SCCF RECON,ioos:station:SCCF:53:1,2008-10-10T22:00:00Z,26.6493,-81.8810,2.11,29.2,2 
SCCF RECON,ioos:station:SCCF:53:1,2008-10-10T23:00:00Z,26.6493,-81.8810,2.11,29.1,2 
SCCF RECON,ioos:station:SCCF:53:1,2008-10-11T00:00:00Z,26.6493,-81.8810,2.11,29.08,2 
SCCF RECON,ioos:station:SCCF:53:1,2008-10-11T01:00:00Z,26.6493,-81.8810,2.11,29.14,2 
SCCF RECON,ioos:station:SCCF:53:1,2008-10-11T02:00:00Z,26.6493,-81.8810,2.11,29.15,2 
SCCF RECON,ioos:station:SCCF:53:1,2008-10-11T03:00:00Z,26.6493,-81.8810,2.11,29.09,2 
SCCF RECON,ioos:station:SCCF:53:1,2008-10-11T04:00:00Z,26.6493,-81.8810,2.11,29.05,2 
SCCF RECON,ioos:station:SCCF:53:1,2008-10-11T05:00:00Z,26.6493,-81.8810,2.11,28.9,2 
SCCF RECON,ioos:station:SCCF:53:1,2008-10-11T06:00:00Z,26.6493,-81.8810,2.11,28.75,2 
SCCF RECON,ioos:station:SCCF:53:1,2008-10-11T07:00:00Z,26.6493,-81.8810,2.11,28.7,2 
SCCF RECON,ioos:station:SCCF:53:1,2008-10-11T08:00:00Z,26.6493,-81.8810,2.11,28.69,2 
SCCF RECON,ioos:station:SCCF:53:1,2008-10-11T09:00:00Z,26.6493,-81.8810,2.11,28.75,2 
SCCF RECON,ioos:station:SCCF:53:1,2008-10-11T10:00:00Z,26.6493,-81.8810,2.11,28.71,2 
SCCF RECON,ioos:station:SCCF:53:1,2008-10-11T11:00:00Z,26.6493,-81.8810,2.11,28.84,2 
SCCF RECON,ioos:station:SCCF:53:1,2008-10-11T12:00:00Z,26.6493,-81.8810,2.11,28.76,2 
SCCF RECON,ioos:station:SCCF:53:1,2008-10-11T13:00:00Z,26.6493,-81.8810,2.11,28.65,2 
SCCF RECON,ioos:station:SCCF:53:1,2008-10-11T14:00:00Z,26.6493,-81.8810,2.11,28.78,2 
SCCF RECON,ioos:station:SCCF:53:1,2008-10-11T15:00:00Z,26.6493,-81.8810,2.11,28.65,2 
SCCF RECON,ioos:station:SCCF:53:1,2008-10-11T16:00:00Z,26.6493,-81.8810,2.11,28.52,2 
SCCF RECON,ioos:station:SCCF:53:1,2008-10-11T17:00:00Z,26.6493,-81.8810,2.11,28.46,2 
SCCF RECON,ioos:station:SCCF:53:1,2008-10-11T18:00:00Z,26.6493,-81.8810,2.11,28.74,2 
SCCF RECON,ioos:station:SCCF:53:1,2008-10-11T19:00:00Z,26.6493,-81.8810,2.11,28.49,2 
SCCF RECON,ioos:station:SCCF:53:1,2008-10-11T20:00:00Z,26.6493,-81.8810,2.11,28.56,2 
SCCF RECON,ioos:station:SCCF:53:1,2008-10-11T21:00:00Z,26.6493,-81.8810,2.11,28.82,2 
SCCF RECON,ioos:station:SCCF:53:1,2008-10-11T22:00:00Z,26.6493,-81.8810,2.11,29.44,2 
SCCF RECON,ioos:station:SCCF:53:1,2008-10-11T23:00:00Z,26.6493,-81.8810,2.11,29.69,2 
SCCF RECON,ioos:station:SCCF:53:1,2008-10-12T00:00:00Z,26.6493,-81.8810,2.11,29.67,2 
SCCF RECON,ioos:station:SCCF:53:1,2008-10-12T01:00:00Z,26.6493,-81.8810,2.11,29.57,2 
SCCF RECON,ioos:station:SCCF:53:1,2008-10-12T02:00:00Z,26.6493,-81.8810,2.11,29.49,2 
SCCF RECON,ioos:station:SCCF:53:1,2008-10-12T03:00:00Z,26.6493,-81.8810,2.11,29.43,2 
SCCF RECON,ioos:station:SCCF:53:1,2008-10-12T04:00:00Z,26.6493,-81.8810,2.11,29.16,2 
SCCF RECON,ioos:station:SCCF:53:1,2008-10-12T05:00:00Z,26.6493,-81.8810,2.11,28.93,2 
SCCF RECON,ioos:station:SCCF:53:1,2008-10-12T06:00:00Z,26.6493,-81.8810,2.11,28.96,2 
SCCF RECON,ioos:station:SCCF:53:1,2008-10-12T07:00:00Z,26.6493,-81.8810,2.11,28.87,2 
SCCF RECON,ioos:station:SCCF:53:1,2008-10-12T08:00:00Z,26.6493,-81.8810,2.11,28.78,2 
SCCF RECON,ioos:station:SCCF:53:1,2008-10-12T09:00:00Z,26.6493,-81.8810,2.11,28.7,2 
SCCF RECON,ioos:station:SCCF:53:1,2008-10-12T10:00:00Z,26.6493,-81.8810,2.11,28.82,2 
SCCF RECON,ioos:station:SCCF:53:1,2008-10-12T11:00:00Z,26.6493,-81.8810,2.11,28.96,2 
SCCF RECON,ioos:station:SCCF:53:1,2008-10-12T12:00:00Z,26.6493,-81.8810,2.11,28.91,2 
SCCF RECON,ioos:station:SCCF:53:1,2008-10-12T13:00:00Z,26.6493,-81.8810,2.11,28.75,2 